Regional Weather Roundup
Issued by NWS

Home | Current Version | Previous Version | Text Only | Print | Product List | Glossary Off
Versions: 1 2 3 4 5 6 7 8 9 10 11 12 13 14 15 16 17 18 19 20 21 22 23 24 25 26 27 28 29 30 31 32 33 34 35 36 37 38 39 40 41 42 43 44 45 46 47 48 49 50

000
ASUS43 KMKX 010021
RWRWI

WISCONSIN REGIONAL WEATHER ROUNDUP
NATIONAL WEATHER SERVICE MILWAUKEE/SULLIVAN WI
700 PM CDT SUN AUG 31 2014

NOTE: "FAIR" INDICATES FEW OR NO CLOUDS BELOW 12,000 FEET WITH NO
SIGNIFICANT WEATHER AND/OR OBSTRUCTIONS TO VISIBILITY.

WIZ001-002-006>008-014>016-023>028-010100-
NORTHWEST WISCONSIN

CITY           SKY/WX    TMP DP  RH WIND       PRES   REMARKS
SUPERIOR ARPT  LGT RAIN  62  61  98 S6G21     29.65S
6HR MIN TEMP:  62; 6HR MAX TEMP:  75; 6HR PCP:  0.21;

ASHLAND        PTCLDY    76  67  73 S9G18     29.66F
6HR MIN TEMP:  66; 6HR MAX TEMP:  79;

HAYWARD        MOCLDY    76  69  79 S13       29.67F
6HR MIN TEMP:  69; 6HR MAX TEMP:  78;

SIREN          MOCLDY    78  70  75 SW5       29.64F HX  80
6HR MIN TEMP:  77; 6HR MAX TEMP:  81;

RICE LAKE      TSTM      74  67  77 SE13      29.70F
6HR MIN TEMP:  74; 6HR MAX TEMP:  80; 6HR PCP:  0.01;

LADYSMITH      PTCLDY    76  69  78 SE8       29.74F
6HR MIN TEMP:  71; 6HR MAX TEMP:  80;

EAU CLAIRE     MOCLDY    80  70  71 S14       29.69F HX  83
6HR MIN TEMP:  77; 6HR MAX TEMP:  84;

MENOMONIE      CLOUDY    79  69  70 SE12      29.68F HX  82
6HR MIN TEMP:  78; 6HR MAX TEMP:  84;

NEW RICHMOND   LGT RAIN  78  70  74 SW8       29.66F HX  81
6HR MIN TEMP:  76; 6HR MAX TEMP:  83;

OSCEOLA        CLOUDY    81  73  77 S9        29.66F HX  85
6HR MIN TEMP:  78; 6HR MAX TEMP:  84;

$$

WIZ003>005-009-010-017-018-010100-
NORTH CENTRAL WISCONSIN

CITY           SKY/WX    TMP DP  RH WIND       PRES   REMARKS
WOODRUFF       CLEAR     72  65  78 S13       29.79F
6HR MIN TEMP:  63; 6HR MAX TEMP:  77;

RHINELANDER    PTCLDY    71  65  81 SE9       29.82F
6HR MIN TEMP:  65; 6HR MAX TEMP:  75;

EAGLE RIVER    CLEAR     70  63  78 S7G16     29.80F
LAND O LAKES   CLEAR     71  63  76 S7        29.81F
6HR MIN TEMP:  65; 6HR MAX TEMP:  73;

PHILLIPS       MOCLDY    73  67  81 S12       29.75F
6HR MIN TEMP:  66; 6HR MAX TEMP:  77;

TOMAHAWK       PTCLDY    71  64  76 SE3       29.80F
6HR MIN TEMP:  67; 6HR MAX TEMP:  77;

MEDFORD        PTCLDY    73  67  82 S9        29.79F
6HR MIN TEMP:  72; 6HR MAX TEMP:  76;

MERRILL        PTCLDY    74  66  77 SE12      29.79F
6HR MIN TEMP:  71; 6HR MAX TEMP:  78;

$$

WIZ029-030-035-036-043>047-010100-
CENTRAL WISCONSIN

CITY           SKY/WX    TMP DP  RH WIND       PRES   REMARKS
WAUSAU         PTCLDY    75  66  73 SE12      29.79F
6HR MIN TEMP:  72; 6HR MAX TEMP:  79;

MOSINEE        CLEAR     73  70  88 SE8       29.80F
MARSHFIELD     PTCLDY    76  67  73 S8        29.79F
6HR MIN TEMP:  75; 6HR MAX TEMP:  81;

STEVENS POINT  CLEAR     75  66  74 SE6       29.81F
6HR MIN TEMP:  75; 6HR MAX TEMP:  79;

WAUPACA        PTCLDY    79  68  69 SE6       29.82F HX  81
6HR MIN TEMP:  77; 6HR MAX TEMP:  83;

WAUTOMA        PTCLDY    79  69  71 SE7       29.81F HX  81
6HR MIN TEMP:  79; 6HR MAX TEMP:  84; 6HR PCP: TRACE;

WISC RAPIDS    PTCLDY    77  67  71 SE6       29.80F
6HR MIN TEMP:  75; 6HR MAX TEMP:  83;

CAMP DOUGLAS   MOCLDY    79  72  78 SE7       29.79F HX  82
$$

WIZ011>013-019>022-031-037>040-048>050-010100-
NORTHEAST WISCONSIN

CITY           SKY/WX    TMP DP  RH WIND       PRES   REMARKS
ANTIGO         MOCLDY    69  66  88 SE13      29.84F
6HR MIN TEMP:  67; 6HR MAX TEMP:  73;

STURGEON BAY   CLOUDY    64  61  88 S9        29.88F
6HR MIN TEMP:  64; 6HR MAX TEMP:  68;

GREEN BAY      CLOUDY    68  66  93 SE10      29.86F
6HR MIN TEMP:  68; 6HR MAX TEMP:  76;

MANITOWOC      CLOUDY    66  65  96 S8        29.89F
6HR MIN TEMP:  66; 6HR MAX TEMP:  67;

APPLETON       MOCLDY    72  66  83 SE13      29.86S
CLINTONVILLE   MOCLDY    73  68  83 SE9       29.83F
OSHKOSH        PTCLDY    77  70  79 SE9       29.84F
6HR MIN TEMP:  75; 6HR MAX TEMP:  81;

$$

WIZ032>034-041-042-053>061-010100-
SOUTHWEST WISCONSIN

CITY           SKY/WX    TMP DP  RH WIND       PRES   REMARKS
LA CROSSE      MOCLDY    83  69  62 S12G21    29.74F HX  86
6HR MIN TEMP:  82; 6HR MAX TEMP:  87; 6HR PCP: TRACE;

SPARTA         PTCLDY    80  65  61 S6        29.78F HX  82
6HR MIN TEMP:  80; 6HR MAX TEMP:  85;

VIROQUA        FAIR      77  67  70 S9        29.80F
6HR MIN TEMP:  77; 6HR MAX TEMP:  83;

BOSCOBEL       MOCLDY    83  66  56 VRB5      29.79F HX  85
6HR MIN TEMP:  83; 6HR MAX TEMP:  88;

PRAIRIE DU CHI MOCLDY    81  66  60 SE6       29.76F HX  83
PLATTEVILLE    FAIR      80  67  65 S5        29.83F HX  82
6HR MIN TEMP:  80; 6HR MAX TEMP:  84;

$$

WIZ056-057-062-063-064-067-068-010100-
SOUTH CENTRAL WISCONSIN

CITY           SKY/WX    TMP DP  RH WIND       PRES   REMARKS
BARABOO/DELLS  CLEAR     78  65  62 S10       29.81F HX  80
6HR MIN TEMP:  78; 6HR MAX TEMP:  85;

LONE ROCK      PTCLDY    83  69  62 E6        29.81F HX  86
6HR MIN TEMP:  83; 6HR MAX TEMP:  89;

WATERTOWN      CLEAR     78  66  67 S3        29.86S HX  80
6HR MIN TEMP:  78; 6HR MAX TEMP:  83;

MADISON        PTCLDY    81  65  58 S12       29.84F HX  83
6HR MIN TEMP:  81; 6HR MAX TEMP:  85;

MIDDLETON      FAIR      81  65  58 S7        29.84F HX  82
6HR MIN TEMP:  81; 6HR MAX TEMP:  85;

MONROE         CLEAR     79  68  69 S10       29.85F HX  81
JANESVILLE     PTCLDY    82  64  54 S12       29.86F HX  84
$$

WIZ051-052-058>065-066-070>072-010100-
SOUTHEAST WISCONSIN

CITY           SKY/WX    TMP DP  RH WIND       PRES   REMARKS
MILWAUKEE      PTCLDY    76  68  76 SE9       29.88F
6HR MIN TEMP:  71; 6HR MAX TEMP:  78;

WAUKESHA       CLEAR     77  63  61 S9        29.89F
MILWAUKEE/TIMM CLEAR     77  66  69 SE5       29.88F
RACINE         CLEAR     76  68  76 S5        29.90S
6HR MIN TEMP:  74; 6HR MAX TEMP:  80;

BURLINGTON     CLEAR     76  66  71 S3        29.88F
6HR MIN TEMP:  76; 6HR MAX TEMP:  82;

KENOSHA        CLEAR     79  68  69 SE7       29.89S HX  81
6HR MIN TEMP:  79; 6HR MAX TEMP:  84;

FOND DU LAC    CLEAR     74  68  81 SE12      29.85F
6HR MIN TEMP:  74; 6HR MAX TEMP:  81;

SHEBOYGAN      CLOUDY    67  65  93 SE5       29.89F FOG
6HR MIN TEMP:  67; 6HR MAX TEMP:  76;

WEST BEND      MOCLDY    70  64  83 SE7       29.87F
JUNEAU         CLEAR     77  66  68 SE8       29.87S
6HR MIN TEMP:  77; 6HR MAX TEMP:  82;

$$

LSZ147-162-010100-
LAKE SUPERIOR

STATION/POSITION TIME  TEMP    WIND        PRES    WAVE
                       AIR SEA DIR/SP/G            HT/PER
                 (UTC) (F)     (DEG/KT/KT) (MB)    (FT/S)
W MID LAKE BUOY  2350   62 58  100/  8/ 10 1005.5F   2/ 4
DEVILS ISLAND    0000   65      90/  8/  9 1004.2F
PORT WING        2300   67      40/ 10/ 19 1004.4S
SAXON HARBOR     2300   79     180/  3/  9 1005.1F
$$

LMZ867-665-643>646-010100-
LAKE MICHIGAN

STATION/POSITION TIME  TEMP    WIND        PRES    WAVE
                       AIR SEA DIR/SP/G            HT/PER
                 (UTC) (F)     (DEG/KT/KT) (MB)    (FT/S)
N MID LAKE BUOY  2350   65 66  160/ 10/ 12 1012.0F   1
NORTHPORT PIER   2300   65     140/ 11/ 13 1012.2F
KEWAUNEE LAKESHO 2300   63     150/  6/  8 1011.7F
SHEBOYGAN LAKESH 0000   65 53  150/  9/  9 1012.2F
ATWATER BUOY     0000   70     150/  6/  6 1012.8F
MILWAUKEE LAKESH 0000   69     130/  6/  9   N/A
S MID LAKE BUOY  2350   72 71  130/  8/  8 1012.1F   1
KENOSHA   LAKESH 0000   73     170/ 10/ 11 1011.2F
$$

TC  - TEMPERATURE IN CELSIUS
VSB - VISIBILITY IN STATUTE MILES
WCI - WIND CHILL INDEX
HX  - HEAT INDEX




USA.gov is the U.S. government's official web portal to all federal, state and local government web resources and services.